Regional Weather Roundup
Issued by NWS

Home | Current Version | Previous Version | Graphics & Text | Print | Product List | Glossary Off
Versions: 1 2 3 4 5 6 7 8 9 10 11 12 13 14 15 16 17 18 19 20 21 22 23 24 25 26 27 28 29 30 31 32 33 34 35 36 37 38 39 40 41 42 43 44 45 46 47 48 49 50

000
ASUS43 KTOP 292008
RWRKS

WEATHER ROUNDUP FOR KANSAS
NATIONAL WEATHER SERVICE GOODLAND KS
300 PM CDT SAT AUG 29 2015

NOTE:  "FAIR" INDICATES FEW OR NO CLOUDS BELOW 12,000 FEET WITH NO
SIGNIFICANT WEATHER AND/OR OBSTRUCTIONS TO VISIBILITY.

KSZ001>006-013>018-027>032-041>047-292100-
NORTHWEST KANSAS

CITY           SKY/WX    TMP DP  RH WIND       PRES   REMARKS
GOODLAND       SUNNY     89  38  16 VRB3      30.15F
HAYS           SUNNY     88  55  33 NE12      30.07F
HILL CITY      SUNNY     91  52  26 E7        30.08F
RUSSELL        SUNNY     85  59  41 NE12      30.05F
$$

KSZ061>065-074>080-084>089-292100-
SOUTHWEST KANSAS

CITY           SKY/WX    TMP DP  RH WIND       PRES   REMARKS
DODGE CITY     SUNNY     85  56  37 N14       30.10F
ELKHART          N/A     91  49  23 NE6         N/A
GARDEN CITY    SUNNY     88  51  28 CALM      30.12F
GREAT BEND     SUNNY     84  57  39 N12       30.06F
LIBERAL        SUNNY     88  55  33 N12       30.13F
PRATT          SUNNY     82  57  42 N7        30.07F
$$

KSZ066>073-081>083-090>101-292100-
SOUTHEAST KANSAS

CITY           SKY/WX    TMP DP  RH WIND       PRES   REMARKS
CHANUTE        CLOUDY    79  65  62 N7        30.01S
COFFEYVILLE    PTSUNNY   82  67  60 N9        29.99S
HUTCHINSON     MOSUNNY   78  62  57 NE10G16   30.05F
MEDICINE LODGE   N/A     85  63  47 N12       30.02F
NEWTON         CLOUDY    70  57  64 NE9       30.08S
PARSONS        CLOUDY    80  67  64 NW6       30.01S
WICHITA INTL   CLOUDY    73  62  68 NE8       30.05F
WICHITA JABRA  CLOUDY    70  63  78 N5        30.05F
WICHITA MCCONL PTSUNNY   70  60  70 VRB7      30.05S
$$

KSZ007>012-019>026-033>040-048>060-102>105-292100-
NORTHEAST KANSAS

CITY           SKY/WX    TMP DP  RH WIND       PRES   REMARKS
CONCORDIA      MOSUNNY   72  63  73 E5        30.07F
EMPORIA        CLOUDY    71  63  75 VRB5      30.04F
LAWRENCE       CLOUDY    73  66  78 N5        30.02F
MANHATTAN      CLOUDY    72  64  76 VRB7      30.05F
MARYSVILLE     CLOUDY   N/A N/A N/A E3        30.08S
OLATHE IND     CLOUDY    76  67  73 N6        30.02F
OLATHE EXE     CLOUDY    76  66  71 N5        30.01F
SALINA         CLOUDY    74  63  68 N8        30.06F
TOPEKA BILLARD CLOUDY    75  65  70 N5        30.03F
TOPEKA FORBES  CLOUDY    76  65  68 N7        30.03F
$$


USA.gov is the U.S. government's official web portal to all federal, state and local government web resources and services.